User: anonymous   Login
Location: Shell Point
(30.0571°N, 84.2896°W)
Time: 13:16:39
(UTC-04:00)
Language:

Meteor 2-19 Rocket - Orbit

View from above orbital plane
View from above orbital plane
View from above satellite
View from above satellite

Ground track
Ground track

The orbit data is extracted from the following two-line orbital elements,

1 20671U 90057B   15143.87180093  .00000043  00000-0  25230-4 0  9990
2 20671 082.5481 252.4815 0013912 279.3761 202.2044 13.84590510258548
Epoch (UTC): 23 May 2015 20:55:23
Eccentricity: 0.0013912
inclination: 82.5481°
perigee height: 937 km
apogee height: 958 km
right ascension of ascending node: 252.4815°
argument of perigee: 279.3761°
revolutions per day: 13.84590510
mean anomaly at epoch: 202.2044°
orbit number at epoch: 25854

The dashed part of the orbit path shows where the satellite is in the earth's shadow,  

DLR